Regional Weather Roundup
Issued by NWS

Home | Current Version | Previous Version | Graphics & Text | Print | Product List | Glossary On
Versions: 1 2 3 4 5 6 7 8 9 10 11 12 13 14 15 16 17 18 19 20 21 22 23 24 25 26 27 28 29 30 31 32 33 34 35 36 37 38 39 40 41 42 43 44 45 46 47 48 49 50
000
ASUS43 KMKX 040400
RWRWI

WISCONSIN REGIONAL WEATHER ROUNDUP
NATIONAL WEATHER SERVICE MILWAUKEE/SULLIVAN WI
1100 PM CDT TUE MAY 03 2016

NOTE: "FAIR" INDICATES FEW OR NO CLOUDS BELOW 12,000 FEET WITH NO
SIGNIFICANT WEATHER AND/OR OBSTRUCTIONS TO VISIBILITY.

WIZ001-002-006>008-014>016-023>028-040500-
NORTHWEST WISCONSIN

CITY           SKY/WX    TMP DP  RH WIND       PRES   REMARKS
SUPERIOR ARPT  PTCLDY    52  33  47 N12G18    29.85R
ASHLAND        CLEAR     46  35  65 NE18G25   29.84R
HAYWARD        CLEAR     51  32  48 NE18      29.81R
SIREN          CLEAR     56  29  35 NE14G21   29.80R
CUMBERLAND     CLEAR     54  28  37 N20G26    29.77R
RICE LAKE      NOT AVBL
CHETEK         CLEAR     54  41  61 N10G20    29.76R
LADYSMITH      CLEAR     49  38  64 N10       29.78R
EAU CLAIRE     NOT AVBL
MENOMONIE      PTCLDY    52  42  68 N5        29.74R
NEW RICHMOND   CLEAR     56  29  36 NE12G17   29.77R
OSCEOLA        CLEAR     58  29  33 N9        29.80R
$$

WIZ003>005-009-010-017-018-040500-
NORTH CENTRAL WISCONSIN

CITY           SKY/WX    TMP DP  RH WIND       PRES   REMARKS
MANITOWISH WTR PTCLDY    46  39  78 N6        29.76R
ARBOR VITAE    MOCLDY    49  40  72 NE9       29.74R
WOODRUFF       MOCLDY    49  40  72 NE9       29.74R
RHINELANDER    MOCLDY    41  40  96 CALM      29.74R
EAGLE RIVER    PTCLDY    41  41  99 N6        29.74R
LAND O LAKES   DRIZZLE   46  39  78 N8        29.75S
PHILLIPS       NOT AVBL
TOMAHAWK       FOG       38  37  97 CALM      29.74R VSB 1/2
MEDFORD          N/A     42  42 100 CALM      29.72S FOG
MERRILL        NOT AVBL
$$

WIZ029-030-035-036-043>047-040500-
CENTRAL WISCONSIN

CITY           SKY/WX    TMP DP  RH WIND       PRES   REMARKS
WAUSAU         CLEAR     46  44  93 N3        29.70S
MOSINEE        NOT AVBL
MARSHFIELD     CLEAR     47  44  90 N5        29.70R
STEVENS POINT  FOG       40  40 100 N5        29.71R VSB 1/2
WAUPACA        NOT AVBL
WAUTOMA        PTCLDY    46  46 100 CALM      29.69S
WISC RAPIDS    FOG       44  42  93 E3        29.71S VSB 1/4
CAMP DOUGLAS   NOT AVBL
$$

WIZ011>013-019>022-031-037>040-048>050-040500-
NORTHEAST WISCONSIN

CITY           SKY/WX    TMP DP  RH WIND       PRES   REMARKS
ANTIGO         NOT AVBL
SHAWANO        NOT AVBL
OCONTO         CLOUDY    48  48 100 N3        29.69R
STURGEON BAY   CLOUDY    50  43  76 NW8       29.70S
GREEN BAY      LGT RAIN  48  46  93 CALM      29.68S
MANITOWOC      RAIN      48  46  93 S6        29.68F FOG
APPLETON       LGT RAIN  48  46  93 VRB6      29.66F
CLINTONVILLE   NOT AVBL
OSHKOSH        CLOUDY    48  46  93 W3        29.68F
$$

WIZ032>034-041-042-053>061-040500-
SOUTHWEST WISCONSIN

CITY           SKY/WX    TMP DP  RH WIND       PRES   REMARKS
LA CROSSE      CLOUDY    51  49  92 N5        29.70R
SPARTA         MOCLDY    48  48 100 N5        29.71R
VIROQUA        NOT AVBL
BOSCOBEL       CLOUDY    51  49  92 W7        29.70F
PRAIRIE DU CHI LGT RAIN  52  47  84 SE3       29.69F
PLATTEVILLE    CLOUDY    52  47  85 N25G43    29.72R
$$

WIZ056-057-062-063-064-067-068-040500-
SOUTH CENTRAL WISCONSIN

CITY           SKY/WX    TMP DP  RH WIND       PRES   REMARKS
REEDSBURG      MOCLDY    48  48  98 CALM      29.67F
BARABOO/DELLS  MOCLDY    48  46  90 CALM      29.68F
LONE ROCK      HVY RAIN  52  48  86 S12       29.67F FOG
MINERAL POINT  HVY RAIN  50  48  93 N16G25    29.72R
MADISON        LGT RAIN  49  46  90 N6        29.69F
MIDDLETON      NOT AVBL
WATERTOWN      LGT RAIN  50  50  99 N13G21    29.69R
MONROE         NOT AVBL
JANESVILLE     CLOUDY    59  41  51 SW12      29.64
$$

WIZ051-052-058>065-066-070>072-040500-
SOUTHEAST WISCONSIN

CITY           SKY/WX    TMP DP  RH WIND       PRES   REMARKS
MILWAUKEE      CLOUDY    59  41  51 SW10      29.62F
WAUKESHA       CLOUDY    55  39  54 S7        29.63F
MILWAUKEE/TIMM NOT AVBL
RACINE         CLOUDY    59  40  49 SW9       29.65F
BURLINGTON     NOT AVBL
KENOSHA        CLOUDY    59  42  53 SW13      29.64F
FOND DU LAC    CLOUDY    50  47  89 E5        29.66F
SHEBOYGAN      RAIN      48  46  93 N6        29.69R FOG
WEST BEND      CLOUDY    50  46  87 N14G22    29.68R
JUNEAU         LGT RAIN  49  46  89 N10G18    29.71R
$$

LSZ147-162-040500-
LAKE SUPERIOR

STATION/POSITION TIME  TEMP    WIND        PRES    WAVE
                       AIR SEA DIR/SP/G            HT/PER
                 (UTC) (F)     (DEG/KT/KT) (MB)    (FT/S)
W MID LAKE BUOY  0250   42 37   20/ 12/ 16 1009.9R   1/ 4
DEVILS ISLAND    0300   45      30/ 23/ 25 1010.3R
SAXON HARBOR     0340   44      30/ 19/ 24 1009.5R
$$

LMZ867-665-643>646-040500-
LAKE MICHIGAN

STATION/POSITION TIME  TEMP    WIND        PRES    WAVE
                       AIR SEA DIR/SP/G            HT/PER
                 (UTC) (F)     (DEG/KT/KT) (MB)    (FT/S)
CHAMBERS ISLAND  0300   47     320/  6/  8 1005.8R
N MID LAKE BUOY  0250   42 39  160/  6/  8 1004.6F   2/ 5
NORTHPORT PIER   0340   44     310/  9/ 11 1005.4R
ALGOMA LAKESHORE 0315             CALM       N/A
KEWAUNEE LAKESHO 0300   49     250/  2/  4 1005.1R
SHEBOYGAN LAKESH 0300   49      50/ 12/ 13 1005.0F
PORT WASHINGTON  0300   55     160/  4/ 22 1004.4
S MID LAKE BUOY  0250   46 41  190/ 10/ 12 1005.5F   1/ 3
KENOSHA   LAKESH 0300   62     220/  8/ 11 1005.4F
$$

TC  - TEMPERATURE IN CELSIUS
VSB - VISIBILITY IN STATUTE MILES
WCI - WIND CHILL INDEX
HX  - HEAT INDEX




USA.gov is the U.S. government's official web portal to all federal, state and local government web resources and services.